Location: ?????????
(42.0507°N, 44.1546°E)
Time: 13:04:05
(UTC+00:00)

Daily predictions for brighter satellites

Satellite Brightness Start Highest point End
(mag) Time Altitude Azimuth Time Altitude Azimuth Time Altitude Azimuth
Resurs 1-3 3.9 17:11:19 10° S 17:15:41 74° WSW 17:20:04 10° NNW
SPOT 1/Viking Rocket 3.9 17:13:58 10° SSE 17:18:56 52° ENE 17:23:58 10° N
PSLV R/B 4.0 17:16:49 10° NNE 17:20:56 59° E 17:25:03 10° S
USA 186 4.4 17:26:04 10° SW 17:28:09 17° W 17:30:17 10° NW
Cosmos 1025 Rocket 3.2 17:25:10 10° SSW 17:29:26 78° W 17:33:46 10° N
Cosmos 724 4.5 17:25:15 10° SW 17:31:03 78° WNW 17:36:53 10° NNE
Cosmos 1833 Rocket 3.3 17:28:33 10° S 17:33:35 35° ESE 17:38:39 10° NE
SPOT 5 4.2 17:31:27 10° ESE 17:34:45 21° ENE 17:38:01 10° NNE
Cosmos 1452 Rocket 3.7 17:31:08 10° S 17:36:13 53° ESE 17:41:19 10° NNE
X-37B 1.3 17:38:36 10° WNW 17:41:19 43° N 17:44:02 10° E
Terra 3.5 17:38:47 10° ESE 17:42:09 20° ENE 17:45:32 10° NNE
Cosmos 1703 4.0 17:40:50 11° SSE 17:44:04 32° E 17:47:32 10° NNE
Meteor 2-5 Rocket 4.3 17:39:03 10° SSW 17:44:29 61° WNW 17:50:01 10° N
Delta 2 Rocket 3.9 17:42:05 10° SW 17:44:54 25° S 17:46:45 16° SE
ERS-1 Rocket 4.2 17:42:35 12° ESE 17:46:25 28° ENE 17:50:40 10° N
RESURS DK-1 3.2 17:42:39 10° N 17:46:33 38° ENE 17:49:37 15° ESE
Cosmos 2184 Rocket 4.5 17:41:15 10° N 17:47:09 45° ENE 17:52:20 13° SE
Resurs 01 Rocket 2.0 17:47:05 10° S 17:51:28 63° W 17:55:54 10° NNW
Helios 1A Rocket 4.2 17:48:51 14° ESE 17:51:33 27° ENE 17:55:01 10° N
Cosmos 1455 Rocket 4.2 17:47:34 10° NNW 17:51:39 41° W 17:55:42 10° SSW
NOSS 2-1 (C) 4.4 17:50:12 10° NW 17:55:02 71° WSW 18:01:02 14° SSE
IRAS Rocket 4.2 17:51:13 10° NNE 17:56:49 74° ESE 18:02:20 10° S
CZ-4B R/B 1.7 17:56:00 10° N 17:58:50 54° WNW 18:01:39 10° SSW
Cosmos 2228 3.8 17:55:15 10° N 17:59:08 34° ENE 18:01:39 18° SE
Lacrosse 5 2.5 17:54:47 10° NW 17:59:41 48° SW 18:03:40 15° SSE
USA 267 4.2 18:00:35 10° ENE 18:05:39 24° ESE 18:10:43 10° S
Cosmos 2082 Rocket 3.2 18:03:52 16° SSE 18:07:09 28° ESE 18:11:54 10° NE
Cosmos 1271 Rocket 3.9 18:11:18 10° NNW 18:15:03 41° W 18:18:44 10° SSW
Meteor 1-21 Rocket 4.3 18:12:08 14° S 18:16:51 58° E 18:22:26 10° NNE
USA 245 3.3 18:15:25 19° SSE 18:18:28 86° W 18:21:57 10° NNW
H-2A R/B 4.1 18:14:52 10° N 18:18:43 30° WNW 18:22:37 10° SW
Cosmos 1536 Rocket 3.8 18:14:54 10° SSW 18:19:11 69° W 18:23:33 10° N
ARIANE 5 R/B 3.6 18:20:39 21° ESE 18:22:48 32° ENE 18:26:44 10° N
CARTOSAT-1 4.0 18:19:39 15° S 18:23:04 59° W 18:27:21 10° NNW
Cosmos 1455 3.7 18:21:10 10° NNW 18:24:36 33° W 18:28:02 10° SSW
Cosmos 1741 Rocket 4.0 18:20:47 10° NNW 18:26:07 85° WSW 18:29:36 22° SSE
Cosmos 1606 Rocket 4.0 18:23:05 10° N 18:27:16 45° ENE 18:29:09 28° SE
SPOT 3 Rocket 3.8 18:24:53 17° S 18:28:57 68° WSW 18:34:10 10° NNW
Cosmos 2074 Rocket 4.0 18:23:44 10° N 18:30:01 83° W 18:34:56 17° S
Ariane Rocket 4.1 18:26:19 10° SSW 18:31:05 40° W 18:35:54 10° NNW
Tiangong 3.6 18:36:50 10° SW 18:37:34 11° SW 18:37:34 11° SW
Nadezhda 1 Rocket 3.9 18:34:07 16° S 18:39:08 82° E 18:45:14 10° N
ATLAS 2AS CENTAUR R/B 4.0 18:37:42 10° NW 18:43:36 31° WSW 18:48:29 13° SSW
Cosmos 1295 Rocket 4.4 18:42:34 10° N 18:48:50 89° W 18:52:36 25° S
Meteor 2-1 Rocket 4.1 18:44:24 10° N 18:49:57 86° E 18:52:54 29° SSE
Cosmos 1726 Rocket 3.6 18:45:46 10° N 18:50:04 62° E 18:51:30 39° SE
Cosmos 1892 3.4 18:52:28 34° E 18:52:39 34° E 18:56:05 10° NNE
SL-16 R/B 4.2 18:50:12 10° N 18:53:57 18° NE 18:57:41 10° E
Cosmos 1980 Rocket 2.5 18:49:08 10° NNW 18:54:44 56° ENE 18:57:22 30° SE
Cosmos 1697 Rocket 2.7 18:49:24 10° NNW 18:55:02 75° WSW 18:57:48 31° S
Cosmos 2369 3.8 18:52:19 10° NNW 18:58:04 68° ENE 19:00:39 33° SE
COSMOS 2406 3.3 18:54:54 10° SSW 19:00:40 78° WNW 19:06:27 10° NNE
Cosmos 2154 Rocket 4.2 18:55:20 10° NNW 19:01:29 67° W 19:05:23 23° S
Spot 2 Rocket 4.1 18:58:36 23° SSW 19:01:33 51° W 19:06:32 10° NNW
SL-8 R/B 3.7 18:57:07 10° WNW 19:01:54 69° SSW 19:03:27 42° SE
ATLAS 5 CENTAUR R/B 2.0 19:06:38 35° E 19:06:38 35° E 19:09:32 10° NE
TIMED 4.4 19:08:25 46° S 19:09:34 70° ESE 19:13:55 10° NNE
CZ-2C R/B 4.4 19:06:15 10° N 19:10:41 52° WNW 19:13:44 19° SW
SPOT 5 3.8 19:10:32 22° SSW 19:12:38 35° W 19:16:37 10° NNW
X-37B 1.8 19:14:06 10° WNW 19:15:49 33° W 19:15:49 33° W
Cosmos 1833 Rocket 4.3 19:12:24 10° WSW 19:17:28 34° WNW 19:22:35 10° N
Terra 2.5 19:17:35 30° SSW 19:19:32 47° W 19:24:09 10° NNW
SL-8 Rocket 4.0 19:15:10 10° N 19:21:23 68° E 19:23:45 39° SSE
Cosmos 2084 Rocket 3.3 19:19:16 10° NW 19:23:11 66° WSW 19:23:35 61° SSW
Cosmos 1869 4.1 19:20:33 10° N 19:24:11 37° ENE 19:24:16 37° E
RESURS DK-1 4.4 19:21:21 10° WNW 19:24:14 18° WSW 19:25:28 16° SW
ERS-1 Rocket 4.1 19:22:34 22° SSW 19:25:04 35° W 19:29:40 10° NNW
ASTEX 1 3.3 19:20:21 10° N 19:25:23 81° E 19:26:50 47° S
Cosmos 1892 Rocket 4.2 19:27:06 31° SW 19:28:53 52° W 19:33:10 10° N
Cosmos 2322 Rocket 3.9 19:25:18 10° N 19:29:47 23° NE 19:32:50 15° E
Meteor 1-11 4.4 19:33:24 29° SSW 19:36:14 66° WNW 19:41:48 10° N
Cosmos 2058 Rocket 3.2 19:32:50 10° NNW 19:37:14 69° W 19:38:03 55° SSW
Cosmos 1825 2.2 19:40:26 71° NE 19:40:26 71° NE 19:43:56 10° N
Cosmos 2366 rocket 4.0 19:34:03 10° N 19:40:26 80° E 19:42:39 43° SSE
Cosmos 1626 Rocket 3.4 19:40:34 65° ESE 19:40:47 67° E 19:45:05 10° NNE
Cosmos 2278 3.7 19:35:05 10° NNW 19:40:50 77° ENE 19:42:30 48° SE
Cosmos 1408 3.5 19:42:17 36° W 19:42:38 37° WNW 19:45:52 10° N
Cosmos 2218 Rocket 4.0 19:37:22 10° N 19:43:49 85° E 19:46:03 44° SSE
Cosmos 968 Rocket 3.9 19:40:15 10° NNW 19:45:18 53° WSW 19:46:37 42° SSW
USA 267 3.2 19:42:36 10° NE 19:49:12 89° SSE 19:55:44 10° SW
Cosmos 2082 Rocket 3.2 19:45:37 10° SW 19:50:59 44° WNW 19:56:26 10° NNE
Cosmos 1867 3.7 19:49:28 10° NW 19:54:52 63° WSW 19:55:51 53° SSW
SJ 16-02 2.6 19:53:56 10° N 19:57:51 30° ENE 19:58:26 29° E
USA 276 4.0 19:56:32 10° NW 19:59:11 26° NNE 19:59:13 26° NNE
ARIANE 5 R/B 4.3 19:58:11 22° WSW 19:59:16 24° W 20:02:51 10° NW
Cosmos 1959 Rocket 4.4 19:53:14 10° N 19:59:20 77° W 20:01:14 47° S
GP-B 4.1 20:01:03 10° NNW 20:05:11 39° W 20:06:09 34° WSW
Cosmos 2360 Rocket 3.7 20:01:04 10° N 20:05:55 28° NE 20:08:32 20° E
H-2A R/B 4.0 20:04:32 10° NNE 20:08:08 48° ENE 20:08:08 48° ENE
Spot 4 3.7 20:09:26 71° SE 20:09:55 81° ENE 20:14:44 10° N
Cosmos 2058 4.0 20:13:53 34° ENE 20:13:53 34° ENE 20:17:07 10° NNE
Cosmos 1606 3.6 20:15:21 10° N 20:18:32 43° NE 20:18:32 43° NE
USA 234 3.7 20:17:23 20° ESE 20:21:59 59° NNE 20:28:24 10° NW
Cosmos 1758 Rocket 3.6 20:31:29 69° WNW 20:31:29 69° WNW 20:35:49 10° N
Cosmos 1821 Rocket 3.9 20:29:09 10° N 20:35:23 81° W 20:36:45 57° S
Cosmos 1633 4.0 20:38:23 33° NW 20:38:23 33° NW 20:40:57 10° N
Cosmos 1980 Rocket 3.8 20:34:08 10° NW 20:38:15 21° W 20:39:07 20° WSW
SL-16 R/B 2.0 20:33:03 10° NNW 20:38:46 82° WSW 20:39:33 66° S
Cosmos 2219 Rocket 4.0 20:38:25 10° N 20:43:02 25° NE 20:46:28 15° E
Cosmos 1812 Rocket 4.2 20:40:52 10° NNW 20:45:00 46° W 20:45:00 46° W
SL-4 R/B 3.3 20:47:59 29° NE 20:47:59 29° NE 20:49:58 10° NE
ATLAS 5 CENTAUR R/B 3.7 20:48:01 12° W 20:50:32 20° NW 20:53:39 10° N
Nadezhda 3 Rocket 4.1 20:51:40 49° SW 20:53:13 65° W 20:59:21 10° N
Cosmos-2242 3.8 20:50:46 10° NNW 20:54:24 43° WNW 20:54:24 43° WNW
ADEOS Rocket 3.6 20:58:46 47° SSW 21:00:55 66° W 21:08:36 10° NNW
ALOS 2 3.3 21:02:25 43° W 21:02:25 43° W 21:06:14 10° NNW
ERS-2 3.1 21:00:40 10° N 21:03:18 46° N 21:03:18 46° N
NOSS 3-2 (A) 4.4 21:07:34 27° ESE 21:07:34 27° ESE 21:12:11 10° NE
Cosmos 1354 Rocket 4.5 21:03:39 10° NNW 21:08:41 45° WSW 21:08:45 45° WSW
Cosmos 972 Rocket 4.1 21:04:47 10° NNW 21:10:03 76° ENE 21:10:57 61° SE
BREEZE-M DEB (TANK) 4.4 20:57:26 10° WNW 21:10:06 63° NNE 21:12:43 23° E
Cosmos 2322 Rocket 2.3 21:08:39 10° NNW 21:14:14 59° WSW 21:14:37 57° SW
Cosmos 1933 4.4 21:17:11 10° N 21:20:41 38° ENE 21:20:41 38° ENE
Cosmos 1953 Rocket 3.9 21:21:34 55° WNW 21:21:34 55° WNW 21:25:47 10° N
CENTAUR R/B 3.1 21:22:25 35° ESE 21:22:43 35° ESE 21:28:34 10° NE
PSLV R/B 3.7 21:20:23 10° N 21:25:07 72° WNW 21:25:16 71° W
SL-27 R/B 4.1 21:27:30 30° NNE 21:27:30 30° NNE 21:29:19 10° NNE
Cosmos 1777 Rocket 4.4 21:21:35 10° NNW 21:26:40 49° WSW 21:26:40 49° WSW
ISS -1.5 21:28:50 22° NE 21:28:50 22° NE 21:30:08 10° NE
Cosmos 2333 Rocket 2.3 21:23:39 10° NNW 21:29:26 72° ENE 21:30:54 50° SE
Gbstr 26 Del rocket 3.8 21:28:42 38° WNW 21:30:06 53° NNW 21:35:14 10° NE
SJ 16-02 3.0 21:32:38 10° NW 21:35:23 23° W 21:35:23 23° W
Cosmos 1340 Rocket 4.2 21:37:32 30° WNW 21:37:32 30° WNW 21:40:45 10° N
Cosmos 2151 3.4 21:38:26 55° ENE 21:38:26 55° ENE 21:42:23 10° NNE
Meteor 2-3 Rocket 3.6 21:38:40 65° SSE 21:39:30 80° E 21:45:06 10° NNE
COSMOS 2487 4.2 21:41:46 28° N 21:41:46 28° N 21:43:22 10° NNE
Cosmos 1934 Rocket 4.5 21:41:48 10° NNW 21:47:30 43° W 21:48:35 39° WSW
Cosmos 2227 Rocket 4.3 21:47:54 12° ESE 21:49:31 13° E 21:52:05 10° ENE
Cosmos 2360 Rocket 2.5 21:44:42 10° NW 21:50:06 46° WSW 21:50:16 46° WSW
Cosmos 2221 3.2 21:47:47 10° NNW 21:51:29 43° WNW 21:51:29 43° WNW
Cosmos 1812 3.4 21:48:25 10° N 21:51:48 50° ENE 21:51:48 50° ENE
Cosmos 1842 Rocket 3.8 21:49:57 10° NNW 21:54:05 58° WNW 21:54:05 58° WNW
Cosmos 2333 4.1 21:48:48 10° NNW 21:54:34 71° WSW 21:55:27 61° SSW
NOSS 3-2 (C) 4.1 21:54:08 32° SE 21:54:41 33° ESE 21:59:58 10° NE
Resurs 1-4 Rocket 3.4 21:51:00 10° NE 21:55:37 29° E 21:56:57 26° ESE
Cosmos 1862 4.3 21:58:36 37° E 21:58:36 37° E 22:02:04 10° NNE
Cosmos 1782 3.0 21:58:13 10° N 22:01:43 67° NNW 22:01:43 67° NNW
CZ-2D R/B 3.2 21:59:20 10° NNE 22:04:01 33° E 22:05:21 29° SE
USA 234 3.5 22:04:42 43° SW 22:05:05 44° SW 22:11:18 10° WNW
SL-23 DEB 4.5 22:08:13 43° N 22:08:13 43° N 22:10:52 10° NE
Cosmos 1727 Rocket 4.0 22:06:28 51° SSW 22:08:12 80° W 22:14:31 10° N
SL-16 R/B 3.8 22:04:32 12° SE 22:09:38 37° ENE 22:15:16 10° N
Cosmos 1459 Rocket 4.2 22:05:37 10° N 22:11:36 62° E 22:14:04 36° SSE
USA 238 DEB 4.0 22:11:04 40° SSE 22:12:39 48° ESE 22:19:03 10° NE
USA 238 4.0 22:11:12 40° SSE 22:12:48 48° ESE 22:19:11 10° NE
Cosmos 2237 Rocket 3.8 22:09:46 10° N 22:14:50 32° NE 22:19:51 10° ESE
COSMOS 2428 2.7 22:10:25 10° NNW 22:16:10 85° ENE 22:18:09 43° SSE
Cosmos 2297 Rocket 3.1 22:17:05 31° SE 22:18:32 37° ESE 22:23:40 10° NE
SL-16 R/B 4.4 22:21:08 10° W 22:21:23 10° W 22:21:23 10° W
Cosmos 1763 Rocket 4.1 22:21:41 39° WSW 22:22:55 46° WNW 22:28:01 10° N
ADEOS II 3.5 22:21:29 10° NE 22:26:00 29° E 22:28:09 22° SE
SL-4 R/B 4.2 22:23:26 10° WNW 22:26:19 22° N 22:29:20 10° NE
Cosmos 2219 Rocket 2.3 22:21:47 10° NNW 22:27:18 54° WSW 22:28:08 50° SW
Cosmos 372 Rocket 4.4 22:24:42 10° NNW 22:29:53 59° ENE 22:32:34 28° SE
Cosmos 2322 3.8 22:24:26 10° NNW 22:29:59 56° WSW 22:30:54 50° SW
Cosmos 2100 Rocket 3.9 22:24:13 10° N 22:30:37 85° W 22:33:02 41° S
Cosmos 841 Rocket 3.4 22:31:13 57° SSW 22:32:19 88° ESE 22:37:31 10° NNE
Thor Agena Rocket 3.4 22:28:05 10° NNE 22:33:16 81° WNW 22:34:29 53° SSW
Cosmos 2173 Rocket 4.0 22:30:02 10° N 22:36:26 82° W 22:38:58 40° S
Cosmos 2123 Rocket 4.1 22:34:04 36° SSE 22:36:41 69° E 22:42:58 10° NNE
Cosmos 990 Rocket 4.5 22:32:15 10° NW 22:37:02 40° WSW 22:37:12 40° WSW
Cosmos 1725 Rocket 4.3 22:31:11 10° N 22:37:18 60° E 22:40:56 25° SSE
Cosmos 858 Rocket 4.4 22:36:28 10° NNW 22:41:43 89° WSW 22:43:36 41° SSE
Okean 3 Rocket 4.3 22:43:23 36° SE 22:44:44 48° E 22:49:07 10° NNE
SL-24 DEB 4.3 22:46:48 51° WSW 22:47:22 54° W 22:51:53 10° NNW
Cosmos 2016 Rocket 3.9 22:45:12 10° N 22:51:21 85° E 22:54:30 31° S
Cosmos 1184 Rocket 3.5 22:49:03 10° NNW 22:51:15 43° NNW 22:51:15 43° NNW
IDEFIX/ARIANE 42P 3.4 22:48:26 10° NNE 22:53:24 43° E 22:55:51 26° SSE
Geosat 4.1 22:54:41 45° SSW 22:55:43 53° WSW 23:00:39 10° NW
Cosmos 540 Rocket 4.4 22:55:58 30° WSW 22:57:36 37° WNW 23:02:24 10° N
NOSS 3-2 (A) 3.9 22:54:56 27° WSW 22:57:38 48° NW 23:03:47 10° NNE
Meteor 2-6 Rocket 4.4 22:57:14 10° NNW 23:03:01 59° W 23:05:11 37° SSW
ISS -1.4 23:01:42 12° WNW 23:03:54 21° NNW 23:06:35 10° NE
NPP 3.6 23:02:26 10° N 23:07:51 78° WNW 23:10:06 36° SSW
Cosmos 1802 Rocket 4.1 23:01:44 10° NNW 23:07:51 61° W 23:10:44 32° SSW
Cosmos 1864 Rocket 4.4 23:04:32 10° NNW 23:10:43 72° W 23:13:57 29° S
Cosmos 2333 Rocket 3.9 23:09:35 10° WNW 23:12:52 16° W 23:12:52 16° W
CENTAUR R/B 3.3 23:09:34 22° WSW 23:13:08 45° NW 23:19:52 10° NNE
Cosmos 1356 Rocket 3.3 23:13:41 51° SW 23:14:32 69° W 23:18:31 10° N
Cosmos 2061 Rocket 4.0 23:09:25 10° N 23:15:52 74° W 23:19:41 26° S
Cosmos 1980 3.6 23:11:31 10° NNW 23:17:12 80° WSW 23:21:40 17° SSE
Meteor 1-10 Rocket 4.3 23:12:20 10° NNW 23:18:10 65° W 23:21:07 29° SSW
Lacrosse 4 Rocket 3.8 23:18:46 10° N 23:22:06 24° NE 23:25:27 10° ESE
Cosmos 1151 Rocket 3.6 23:19:20 10° NNW 23:23:25 40° W 23:24:19 35° WSW
Cosmos 1340 3.5 23:20:57 10° NNW 23:24:17 32° W 23:24:18 32° W
SAR-Lupe-2 3.5 23:23:34 10° NNE 23:27:10 85° E 23:28:15 43° S
AQUA 3.9 23:22:33 10° N 23:27:16 64° WNW 23:29:19 33° SW
NOSS 0 Rocket 4.2 23:21:30 10° NW 23:27:21 47° WSW 23:30:34 25° SSW
Cosmos 1937 Rocket 4.4 23:24:02 10° NW 23:28:32 30° W 23:29:31 28° WSW
ATLAS CENTAUR R/B 4.0 23:28:54 10° SSE 23:31:47 16° ESE 23:34:43 10° ENE
Cosmos 1515 3.6 23:28:14 10° NNW 23:32:01 72° W 23:33:24 36° S
Cosmos 2227 Rocket 2.2 23:29:43 29° SSW 23:32:44 83° WNW 23:38:27 10° NNE
Cosmos 1328 Rocket 3.8 23:28:51 10° NNW 23:33:07 51° W 23:34:42 33° SSW
SL-16 R/B 3.3 23:28:10 10° NNW 23:33:39 45° ENE 23:39:04 10° SE
Resurs 1-4 Rocket 3.0 23:30:36 10° N 23:35:27 37° WNW 23:38:01 23° WSW
MOS 1 Rocket 4.1 23:36:00 28° SW 23:37:59 40° W 23:42:58 10° NNW
Cosmos 1400 Rocket 2.7 23:38:35 32° SSW 23:40:20 83° W 23:44:24 10° N
Cosmos 2082 4.3 23:36:53 19° S 23:40:47 52° ESE 23:46:14 10° NNE
CZ-2D R/B 3.1 23:39:25 10° N 23:43:59 32° WNW 23:46:39 20° WSW
Cosmos 2263 Rocket 3.8 23:40:18 10° SSE 23:44:58 28° ESE 23:49:38 10° NE
NOSS 3-2 (C) 4.1 23:41:34 19° WSW 23:45:18 42° NW 23:51:22 10° NNE
Cosmos 1515 Rocket 3.4 23:41:15 10° NNW 23:45:38 74° W 23:48:30 21° S
COSMOS 2455 3.0 23:43:13 10° NW 23:49:03 53° WSW 23:54:51 10° S
OAO 3 Rocket 4.0 23:49:30 25° SW 23:51:03 31° SSW 23:55:22 10° SE
SL-16 R/B 3.1 23:49:37 21° SSW 23:53:08 38° W 23:58:55 10° NNW
Sich 1 4.1 23:49:23 10° SSE 23:53:24 41° E 23:57:27 10° NNE
Meteor 1-28 Rocket 3.7 23:52:43 29° SW 23:53:57 38° W 23:57:26 10° NNW
OE (NEXTSAT) 4.1 23:52:44 29° WSW 23:54:15 83° NNW 23:57:33 10° ENE
